Погода в Ужгороде

Поиск расширенной информации на нашем сайте:

Полезная информация:

Новости сайта



14.11.2019
Обновлён Долгосрочный прогноз погоды по России и другим странам хСССР на ноябрь-декабрь 2019 года.
Опубликованы прогностические карты: Предварительный прогноз на декабрь 2019 года, Предварительный прогноз на январь 2020 года, Предварительная схема синоптических процессов на декабрь 2019 г..

11.11.2019
Обновлены Долгосрочный прогноз погоды по России и другим странам хСССР на ноябрь-декабрь 2019 года и Предварительный прогноз на зиму 2019/2020 годов

04.11.2019
Опубликован Долгосрочный прогноз погоды по России и другим странам хСССР на ноябрь 2019 года
Сравнение прогнозируемой аномалии приземной температуры воздуха на ноябрь 2019 года по разным моделям
Предварительный прогноз на зиму 2019/2020 года




Погода в Ужгороде - сегодня

Время (UTC), дата Ветер
(°,м/с) 
Видим.   Явления Облачность Т
(°С)
Тd
(°С)
f(%) Тe
(°С)
Pmin
(гПа)
dP
(гПа)
Po
(мм)
O2
(г/м3)
Тmin Tmax R s Состояние
почвы
00 18.11.19 тихо ()   10 км    8/0 средняя 
[Ac trans]
+5.6 +4.9 95 +6  1015.4  -0.2  751  296           
03 18.11.19 тихо ()   10 км    9/0 средняя, верхняя 
[Ac trans|Ci fib]
+5.9 +5 94 +6  1015  -0.4  750  295           
06 18.11.19 тихо ()   10 км    8/0 верхняя 
[Ci fib]
+4.5 +4 97 +5  1014.5  -0.5  750  297  +4.1         
09 18.11.19 140 (ЮВ) 10 км    8/0 средняя 
[Ac trans]
+12.5 +6.2 65 +14  1015.2  1.1  751  288           
12 18.11.19 150 (ЮВ) 10 км    10/10 1200 м 
[Sc]
+16.7 +5 46 +17  1014.8  -0.2  751  284           
15 18.11.19 180 (Ю) 10 км    10/10 1170 м 
[Sc]
+15 +8 63 +16  1016.5  1.7  752  286           
18 18.11.19 150 (ЮВ) 10 км    8/8 1200 м 
[Sc]
+13.9 +7.8 67 +14  1018.3  1.8  753  287    +17.7       
21 18.11.19 130 (ЮВ) 10 км    3/0 верхняя 
[Ci fib]
+10.8 +8.4 85 +11  1021  2.5  755  291           
00 19.11.19 тихо ()   10 км    4/0 верхняя 
[Ci fib]
+8.5 +7.3 92 +9  1023.3  2.1  757  294           
03 19.11.19 140 (ЮВ) 10 км    ясно 
+5.1 +4.6 97 +5  1024.2  0.7  757  299           
06 19.11.19 тихо ()   4000 м  дымка  3/0 средняя 
[Ac trans]
+3.3 +3 98 +3  1025.2  0.9  758  301  +3.1         
09 19.11.19 тихо ()   10 км    4/0 верхняя 
[Ci fib]
+9.2 +5.9 80 +9  1025.6  0.7  758  295           
12 19.11.19 тихо ()   10 км    4/0 верхняя 
[Ci fib]
+13.8 +6.2 60 +14  1023.3  -2.1  757  289           
15 19.11.19 тихо ()   10 км    4/0 верхняя 
[Ci fib]
+12.2 +8.1 76 +12  1023  -0.4  756  290           
18 19.11.19 тихо ()   10 км    8/0 верхняя 
[Ci fib]
+5 +3.8 92 +5  1022.5  -0.8  756  298    +15.5       
21 19.11.19 тихо ()   10 км    6/0 верхняя 
[Ci fib]
+3.2 +2.7 97 +3  1023.3  0.7  756  301           
00 20.11.19 090 (В) 10 км    4/0 верхняя 
[Ci fib]
+5.1 +2.9 86 +4  1022  -1.1  756  298           
03 20.11.19 тихо ()   10 км    ясно 
+3.8 +3.3 97 +4  1021.6  -0.5  755  300           
06 20.11.19 тихо ()   10 км    8/0 верхняя 
[Ci fib]
+2.9 +2.4 97 +3  1020.2  -1.4  754  300  +2         
09 20.11.19 тихо ()   10 км    8/0 верхняя 
[Ci fib]
+8.5 +6.1 85 +9  1020  0.1  754  294           
12 20.11.19 тихо ()   10 км    8/0 верхняя 
[Ci fib]
+15.6 +6.4 54 +16  1017.2  -2.5  752  286           
15 20.11.19 тихо ()   10 км    8/5 1000 м средняя 
[Sc|Ac trans]
+11.1 +8 81 +11  1016.3  -1.1  752  290           
18 20.11.19 тихо ()   10 км    10/10 1300 м 
[Sc]
+7.9 +6.4 90 +8  1015.9  -0.5  751  293    +16.3       
21 20.11.19 100 (В) 4000 м  слаб. дождь  10/10 1050 м 
[Ns]
+10.2 +8.5 89 +10  1017.6  1.8  752  291           
00 21.11.19 тихо ()   4000 м  слаб. дождь  10/10 750 м 
[Ns]
+10.1 +9.5 96 +11  1017.7  0.1  753  291         
Время (UTC), дата Ветер
(°,м/с) 
Видим.   Явления Облачность Т
(°С)
Тd
(°С)
f(%) Тe
(°С)
Pmin
(гПа)
dP
(гПа)
Po
(мм)
O2
(г/м3)
Тmin Tmax R s Состояние
почвы

Для получения пояснительной информации подведите курсор к названию столбца.

ПОГОДА в Ужгороде - архив

Всё, что Вы хотите узнать о погоде в Ужгороде - удобно и подробно!

Выберите нужную дату (начиная с 1 января 2019* года) и нажмите кнопку "Найти".
Будут отображены архивные сводки погоды по пункту Ужгород, начиная с указанной даты.


Отображать данные в формате CSV (для использования в таблицах Excel)


Внимание! Наш архив погоды предназначен исключительно для личного некоммерческого использования в познавательных целях. Если Вам необходимы официальные справки о состоянии погоды (для производственных, юридических, коммерческих и т.п. целей), обращайтесь в органы Росгидромета.

*Примечание: данная дата относится к архиву по метеостанциям СССР (Россия, СНГ, Балтия).
Архив по метеостанциям Зарубежной Европы и Азии (кроме Китая) хранится 10 дней, по другим регионам земного шара (Китай, Африка, Америка, Австралия, Океания) - 1 день.

Ужгород - район местоположения метеостанции


Название, широта, долгота, высота метеостанции:
Ужгород 48.6°ш. 22.3°д. 124 м над ур. моря [Украина]

Дополнительная информация

В oтличие oт бoльшинства пoгoдных сайтoв мы публикуем пoдрoбную метеoинфoрмацию в детальнoм прoфессиoнальнoм фoрмате.

Характеристики температуры и влажнoсти вoздуха измеряются на высoте 2 м в тени вдали oт зданий и деревьев.
Скoрoсть ветра измеряется на высoте 10 м (на урoвне рoста челoвека скoрoсть ветра ниже в 1.5-2 раза). Если метеoстанция нахoдится в гoрoде или в лесу, тo скoрoсть ветра занижена на 2-4 м/с пo сравнению с oткрытым местoм. Скoрoсть ветра над акватoриями крупных рек и oзёр, а также на вершинах хoлмoв на 2-5 м/с выше, чем в oбычных услoвиях.
Атмoсфернoе давление в разных тoчках местнoсти мoжет значительнo oтличаться oт давления на метеoстанции, в зависимoсти oт услoвий рельефа (при пoдъёме на 10 м давление пoнижается примернo на 1 мм рт.ст.).